Regional Weather Roundup
Issued by NWS

Home | Current Version | Previous Version | Graphics & Text | Print | Product List | Glossary On
Versions: 1 2 3 4 5 6 7 8 9 10 11 12 13 14 15 16 17 18 19 20 21 22 23 24 25 26 27 28 29 30 31 32 33 34 35 36 37 38 39 40 41 42 43 44 45 46 47 48 49 50
573
ASUS43 KDMX 060703
RWRIA

WEATHER ROUNDUP FOR IOWA
NATIONAL WEATHER SERVICE DES MOINES IA
100 AM CST SAT FEB 06 2016

NOTE: "FAIR" INDICATES FEW OR NO CLOUDS BELOW 12,000 FEET WITH NO
SIGNIFICANT WEATHER AND/OR OBSTRUCTIONS TO VISIBILITY.

* - THESE STATIONS ARE NOT NWS STATIONS...THUS NOT UNDER NWS
QUALITY CONTROL.  THEY ALSO DO NOT REPORT WEATHER SUCH
AS PRECIPITATION OR FOG.

IAZ001>003-012>014-020>022-031>034-043>046-060800-
   NORTHWEST IOWA

CITY           SKY/WX    TMP DP  RH WIND       PRES   REMARKS
CARROLL *      CLOUDY    30  30 100 W6        30.23S FOG     WCI  24
CHEROKEE *     CLOUDY    28  28 100 CALM      30.22F
DENISON *      CLOUDY    28  28 100 CALM      30.21S FOG
LE MARS *      PTCLDY    25  25 100 CALM      30.23F
ORANGE CITY *  FOG       23  21  93 CALM      30.20F VSB 3/4
SHELDON *      MOCLDY    21  23 100 W7        30.19S FOG     WCI  13
SIOUX CITY     CLEAR     26  24  92 W3        30.24S
SPENCER        CLOUDY    26  23  88 W7        30.20S FOG     WCI  18
STORM LAKE *   CLOUDY    28  28 100 NW8       30.21S FOG     WCI  20
$$

IAZ055>058-069>071-079>083-090>094-060800-
   SOUTHWEST IOWA

CITY           SKY/WX    TMP DP  RH WIND       PRES   REMARKS
ATLANTIC *     CLOUDY    28  28 100 CALM      30.24F FOG
AUDUBON *      CLOUDY    28  27  93 SW9       30.24S FOG     WCI  20
CLARINDA *     CLOUDY    23  23 100 CALM      30.28S FOG
COUNCIL BLFS * CLOUDY    30  30 100 NW6       30.25S FOG     WCI  24
CRESTON *      FOG       23  23 100 CALM      30.25F VSB<1/4
HARLAN  *      CLOUDY    27  27 100 CALM      30.28R FOG
LAMONI         PTCLDY    28  22  78 S7        30.25S WCI  21
RED OAK *      CLOUDY    28  28 100 CALM      30.26S FOG
SHENANDOAH *   CLOUDY    28  28 100 CALM      30.28R FOG
$$

IAZ047>049-059>061-072>074-084-060800-
   CENTRAL IOWA

CITY           SKY/WX    TMP DP  RH WIND       PRES   REMARKS
AMES           CLOUDY    29  27  92 S8        30.24F WCI  21
ANKENY *       CLOUDY    30  28  93 S5        30.26S WCI  25
BOONE *        CLOUDY    30  28  93 SW7       30.22F WCI  23
CHARITON *     CLOUDY    27  23  86 SE5       30.25F WCI  21
DES MOINES     CLOUDY    31  26  82 SW7       30.26S WCI  24
GRINNELL*      CLOUDY    29  25  83 S6        30.26S WCI  23
KNOXVILLE *    CLOUDY    30  25  80 S7        30.25F WCI  23
MARSHALLTOWN   CLOUDY    28  24  85 S12       30.23F WCI  18
NEWTON *       CLOUDY    30  28  93 S5        30.26R WCI  25
PELLA *        CLOUDY    30  25  80 CALM      30.28F
$$

IAZ004>006-015-016-023>025-035-036-060800-
   NORTH CENTRAL IOWA

CITY           SKY/WX    TMP DP  RH WIND       PRES   REMARKS
ALGONA *       CLOUDY    28  27  93 W7        30.19F FOG     WCI  21
CLARION *      CLOUDY    27  27 100 SW5       30.22S FOG     WCI  21
ESTHERVILLE    CLOUDY    26  25  96 W10       30.18F FOG     WCI  16
FORT DODGE *   CLOUDY    28  25  86 SW5       30.23S WCI  23
MASON CITY     CLOUDY    26  25  96 SW10      30.21F FOG     WCI  16
FOREST CITY *  CLOUDY    27  27 100 SW6       30.19F FOG     WCI  20
WEBSTER CITY * CLOUDY    28  28 100 S8        30.20F WCI  20
IOWA FALLS *   CLOUDY    28  27  95 S9        30.23S FOG     WCI  20
$$

IAZ007>011-017>019-026>030-037>042-050>054-066-060800-
   NORTHEAST IOWA

CITY           SKY/WX    TMP DP  RH WIND       PRES   REMARKS
CEDAR RAPIDS   CLOUDY    27  24  89 S7        30.26F WCI  19
CHARLES CITY * CLOUDY    27  27 100 SW10      30.22F FOG     WCI  17
CLINTON *      CLOUDY    28  24  85 SW6       30.30F WCI  22
DECORAH *      CLOUDY    25  23  93 SW9       30.20F WCI  15
DUBUQUE        CLOUDY    26  22  84 SW9       30.25F WCI  17
MONTICELLO *   CLOUDY    28  23  80 S6        30.27F WCI  22
OELWEIN *      CLOUDY    27  25  93 S9        30.24F WCI  17
WATERLOO       CLOUDY    27  22  81 S9        30.24F WCI  18
$$

IAZ064-065-067-068-078-060800-
   EAST CENTRAL IOWA

CITY           SKY/WX    TMP DP  RH WIND       PRES   REMARKS
DAVENPORT      CLOUDY    28  22  78 SW6       30.29F WCI  22
IOWA CITY      CLOUDY    28  24  85 CALM      30.30F
MT. PLEASANT * CLOUDY    32  27  80 S5        30.30S WCI  27
MUSCATINE *    CLOUDY    30  25  80 S6        30.31F WCI  24
QUAD CITIES    CLOUDY    29  22  75 S3        30.29F
$$

IAZ062-063-075>077-085>089-095>099-060800-
   SOUTHEAST IOWA

CITY           SKY/WX    TMP DP  RH WIND       PRES   REMARKS
BURLINGTON     CLOUDY    29  23  78 S3        30.29S
FAIRFIELD *    CLOUDY    30  21  69 S5        30.28F WCI  25
FORT MADISON * CLOUDY    28  25  86 S6        30.30S WCI  22
KEOKUK *       CLOUDY    30  23  74 VRB3      30.29F
OSKALOOSA *    CLOUDY    30  25  80 S5        30.28S WCI  25
OTTUMWA        CLOUDY    30  22  72 S3        30.28S
WASHINGTON *   CLOUDY    28  25  86 S6        30.30S WCI  22
$$

ABBREVIATIONS USED IN REMARKS
   TC - TEMPERATURES IN CELSIUS
  WCI - WIND CHILL INDEX
   HX - HEAT INDEX
  VSB - VISIBILITY
$$





USA.gov is the U.S. government's official web portal to all federal, state and local government web resources and services.